Tracking 19794 objects as of 22-Jul-2019
HD Live streaming from Space Station
objects crossing your sky now

COSMOS 1275 DEB

Track COSMOS 1275 DEB now!
10-day predictions


NORAD ID: 13808
Int'l Code: 1981-053HF
Perigee: 900.2 km
Apogee: 993.7 km
Inclination: 83.0 °
Period: 103.8 minutes
Semi major axis: 7317 km
RCS: 0.015 m2 (small)
Launch date: June 4, 1981
Source: Commonwealth of Independent States (former USSR) (CIS)
Launch site: PLESETSK MISSILE AND SPACE COMPLEX (PKMTR)

Note: This is SATELLITE DEBRIS
aabbcc
Your satellite tracking list
Your tracking list is empty




NASA's NSSDC Master Catalog

Two Line Element Set (TLE):
1 13808U 81053HC  19202.88209691 +.00000430 +00000-0 +34964-3 0  9990
2 13808 083.0345 068.7930 0063894 150.0064 342.7439 13.86806056840067
Source of the keplerian elements: AFSPC